This is the latest recevied weather packets stored in our database for station/object WX5KDM. If no packets are shown the sender has not sent any weather packets the latest 1 day(s).
| Time | Temp. | Humidity | Pressure | Rain* | Wind** | Luminosity | Snow |
|---|---|---|---|---|---|---|---|
| 1778013499 | 22.78° C | 70% | 1010.4 hPa | 0 mm | 1.34 m/s, 190° | - | - |
| 1778013196 | 22.78° C | 69% | 1010.4 hPa | 0 mm | 0.45 m/s, 242° | - | - |
| 1778012892 | 22.78° C | 69% | 1010.6 hPa | 0 mm | 1.79 m/s, 184° | - | - |
| 1778012588 | 22.22° C | 69% | 1010.5 hPa | 0 mm | 1.34 m/s, 160° | - | - |
| 1778012285 | 22.22° C | 71% | 1010.8 hPa | 0 mm | 2.24 m/s, 248° | - | - |
| 1778011982 | 22.22° C | 71% | 1011 hPa | 0 mm | 0.89 m/s, 225° | - | - |
| 1778011681 | 22.22° C | 70% | 1010.7 hPa | 0 mm | 0.89 m/s, 193° | - | - |
| 1778011377 | 22.22° C | 70% | 1011 hPa | 0 mm | 2.24 m/s, 213° | - | - |
| 1778011072 | 22.22° C | 70% | 1011 hPa | 0 mm | 1.34 m/s, 181° | - | - |
| 1778010771 | 22.22° C | 69% | 1011 hPa | 0 mm | 2.68 m/s, 189° | - | - |
| 1778010467 | 22.22° C | 70% | 1010.9 hPa | 0 mm | 2.68 m/s, 196° | - | - |
| 1778010164 | 22.22° C | 70% | 1011.2 hPa | 0 mm | 0.89 m/s, 226° | - | - |
| 1778009859 | 22.22° C | 70% | 1011.2 hPa | 0 mm | 0.45 m/s, 195° | - | - |
| 1778009557 | 22.22° C | 71% | 1011.4 hPa | 0 mm | 1.79 m/s, 149° | - | - |
| 1778009256 | 22.22° C | 70% | 1011.5 hPa | 0 mm | 1.34 m/s, 159° | - | - |
| 1778008953 | 21.67° C | 71% | 1011.5 hPa | 0 mm | 1.79 m/s, 146° | - | - |
| 1778008651 | 21.67° C | 71% | 1011.6 hPa | 0 mm | 0.89 m/s, 221° | - | - |
| 1778008349 | 21.67° C | 71% | 1011.7 hPa | 0 mm | 1.34 m/s, 122° | - | - |
| 1778008045 | 21.67° C | 71% | 1011.8 hPa | 0 mm | 2.24 m/s, 196° | - | - |
| 1778007745 | 22.22° C | 70% | 1011.9 hPa | 0 mm | 2.68 m/s, 202° | - | - |
| 1778007442 | 22.22° C | 70% | 1011.7 hPa | 0 mm | 0.89 m/s, 114° | - | - |
| 1778007138 | 21.67° C | 70% | 1011.8 hPa | 0 mm | 1.34 m/s, 216° | - | - |
| 1778006834 | 21.67° C | 70% | 1012 hPa | 0 mm | 1.79 m/s, 144° | - | - |
| 1778006532 | 21.11° C | 72% | 1012.1 hPa | 0 mm | 1.79 m/s, 149° | - | - |
| 1778006228 | 21.11° C | 72% | 1011.9 hPa | 0 mm | 1.79 m/s, 196° | - | - |
* Rain latest hour (hover to see other rain measurements)
** Current wind speed in m/s (hover to see current wind gust speed)